Flag for Germany Weather past 2 weeks in Bühl, Baden-Württemberg, Germany

Now
50 °F

Scattered clouds.


Feels Like: 46 °F
Forecast: 38 / 48 °F
Wind: 10 mph from South

Location: Karlsruhe - Baden Wurttemberg

Current Time: Mar 1, 2015 at 5:42:08 PM

Latest Report: Mar 1, 2015 at 4:50 PM


Visibility: N/A

Pressure: 29.77 "Hg

Humidity: 82%

Dew point: 45 °F

Location of BühlLocation

Historic Weather in Bühl — Graph

°F

Bühl temperature yesterday

Maximum temperature yesterday: 46 °F (at 12:50 PM)
Minimum temperature yesterday: 30 °F (at 6:20 AM)
Average temperature yesterday: 39 °F

Past Weeks' High & Low Weather Summary

 TemperatureHumidityPressure
High57 °F (Feb 20, 1:50 PM)100% (Feb 19, 5:20 AM)30.72 "Hg (Feb 19, 5:20 AM)
Low23 °F (Feb 20, 5:20 AM)31% (Feb 20, 3:50 PM)29.50 "Hg (Feb 21, 6:20 AM)
Average38 °F79%30.03 "Hg
* Reported Feb 14 4:20 PM — Mar 1 4:20 PM, Bühl, Weather by CustomWeather, © 2015

Note: Actual official high and low records may vary slightly from our data, if they occured in-between our weather recording intervals... More about our weather records

Advertising

Bühl weather history for previous 24 hours

 ConditionsComfort  
Time TempWeatherWind HumidityBarometerVisibility
4:20 PM
Sun, Mar 1
50 °FSprinkles. Broken clouds.14 mph82%29.77 "Hg6 mi
3:51 PM52 °FLight rain. Partly sunny.16 mph77%29.77 "Hg4 mi
3:20 PM50 °FScattered showers. Partly sunny.17 mph82%29.77 "HgN/A
2:50 PM52 °FScattered showers. Partly sunny.21 mph72%29.77 "HgN/A
2:20 PM50 °FScattered showers. Partly sunny.17 mph76%29.77 "HgN/A
1:50 PM50 °FPartly sunny.18 mph76%29.77 "HgN/A
1:20 PM50 °FPartly sunny.21 mph76%29.80 "HgN/A
12:50 PM48 °FScattered showers. Partly sunny.20 mph76%29.80 "HgN/A
12:20 PM48 °FScattered showers. Partly sunny.21 mph76%29.80 "HgN/A
11:50 AM46 °FLight rain. Partly sunny.21 mph82%29.80 "HgN/A
11:20 AM46 °FScattered showers. Partly sunny.21 mph76%29.80 "HgN/A
10:50 AM46 °FScattered showers. Partly sunny.20 mph76%29.80 "HgN/A
10:20 AM45 °FPartly sunny.23 mph81%29.77 "HgN/A
9:50 AM43 °FLight rain. Partly sunny.24 mph81%29.77 "HgN/A
9:20 AM43 °FLight rain. Partly sunny.21 mph81%29.80 "Hg6 mi
8:50 AM43 °FLight rain. Partly sunny.22 mph76%29.80 "HgN/A
8:20 AM41 °FPartly sunny.18 mph81%29.80 "HgN/A
7:50 AM41 °FLight rain. Partly sunny.18 mph81%29.80 "HgN/A
7:20 AM41 °FLight rain. Partly sunny.20 mph76%29.80 "HgN/A
6:50 AM39 °FLight rain. Passing clouds.21 mph81%29.80 "HgN/A
6:20 AM39 °FLight rain. Partly cloudy.21 mph81%29.80 "HgN/A
5:50 AM39 °FRain. Passing clouds.16 mph75%29.83 "Hg5 mi
5:20 AM39 °FLight rain. Passing clouds.14 mph75%29.83 "HgN/A
3:20 AM37 °FClear.8 mph75%29.89 "Hg10 mi
2:50 AM37 °FClear.8 mph75%29.89 "Hg10 mi
1:50 AM34 °FClear.6 mph87%29.92 "Hg10 mi
1:20 AM34 °FClear.6 mph87%29.92 "Hg10 mi
10:50 PM
Sat, Feb 28
36 °FClear.5 mph81%30.01 "Hg10 mi
10:20 PM36 °FClear.6 mph75%30.01 "Hg10 mi
9:50 PM36 °FClear.7 mph75%30.01 "Hg10 mi
9:20 PM36 °FClear.7 mph75%30.04 "Hg10 mi
8:50 PM36 °FClear.5 mph75%30.04 "Hg10 mi
8:20 PM36 °FClear.5 mph75%30.04 "Hg10 mi
7:50 PM37 °FClear.3 mph70%30.07 "Hg10 mi
7:20 PM39 °FClear.5 mph61%30.07 "Hg10 mi
6:50 PM39 °FClear.5 mph61%30.07 "Hg10 mi
6:20 PM43 °FClear.3 mph53%30.07 "Hg10 mi
5:50 PM43 °FSunny.5 mph53%30.07 "Hg10 mi
5:20 PM43 °FSunny.7 mph53%30.07 "Hg10 mi
Weather by CustomWeather, © 2015

See weather overviewHow to use our weather pages